[[{"header":{"parameterUnit":"m.s-1","parameterCategory":1,"la1":30.2991,"la2":30.254,"lo1":-89.0895,"lo2":-89.0444,"dy":0.0017,"dx":0.0017,"nx":28,"ny":28,"refTime":"2023-10-12T09:00:00:Z","depth":0,"parameterNumber":2,"parameterNumberName":"U-component_of_WINDS"},"data":[0,0,0,0,0,0,0,0,0,0,0,0,0,0,0,0,0,0,0,0,0,0,0,0,0,0,0,0,0,0,0,0,0,0,0,0,0,0,0,0,0,0,0,0,0,0,0,0,0,0,0,0,0,0,0,0,0,0,-1.6429,-1.6429,0,-1.647,-1.6471,-1.6471,-1.6443,-1.6441,-1.644,-1.6439,-1.6479,-1.6481,-1.6484,0,0,0,0,0,0,0,0,0,0,0,0,0,-1.6321,-1.6323,-1.6429,-1.6429,-1.643,-1.647,-1.6471,-1.6471,-1.6443,-1.6441,-1.644,-1.6438,-1.6479,-1.6481,-1.6484,0,0,0,0,0,0,0,0,0,0,0,0,0,-1.6366,-1.6324,-1.6428,-1.642,-1.642,-1.647,-1.6471,-1.6472,-1.6443,-1.6441,-1.6439,-1.6438,-1.6478,-1.6481,-1.6484,-1.6544,0,0,-1.6495,-1.6496,0,0,0,0,0,0,0,0,-1.6363,-1.637,-1.6421,-1.6421,-1.6421,-1.6449,-1.6448,-1.6496,-1.6444,-1.6434,-1.6439,-1.6437,-1.6471,-1.6475,-1.6487,-1.6546,-1.6548,-1.6495,-1.6497,-1.6499,-1.65,0,0,0,0,0,0,0,-1.636,-1.6368,-1.6445,-1.6422,-1.6422,-1.6414,-1.6418,-1.6457,-1.6463,-1.6435,-1.6433,-1.6439,-1.647,-1.6483,-1.6487,-1.6548,-1.6495,-1.6498,-1.65,-1.6501,-1.6657,-1.6659,0,0,0,0,0,0,-1.6358,-1.6365,-1.6444,-1.6446,-1.6387,-1.6417,-1.6422,-1.6442,-1.6462,-1.6464,-1.644,-1.6437,-1.6479,-1.6483,-1.6489,-1.6559,-1.6499,-1.6502,-1.6504,-1.6655,-1.6658,-1.666,0,0,0,0,0,0,-1.6356,-1.6365,-1.6442,-1.6405,-1.6414,-1.6421,-1.6444,-1.6444,-1.6457,-1.6466,-1.6467,-1.6453,-1.6477,-1.6484,-1.653,-1.656,-1.6503,-1.6506,-1.6653,-1.6656,-1.6659,-1.67,0,0,0,0,0,0,-1.6353,-1.6365,-1.6388,-1.6406,-1.6417,-1.6484,-1.6446,-1.6446,-1.6463,-1.646,-1.6478,-1.6479,-1.6476,-1.6525,-1.6534,-1.6563,-1.6509,-1.665,-1.6654,-1.6658,-1.6696,-1.6704,-1.6711,0,0,0,0,0,-1.6349,-1.6398,-1.639,-1.6399,-1.6446,-1.6486,-1.6492,-1.6488,-1.6466,-1.6489,-1.6495,-1.6479,-1.6555,-1.653,-1.654,-1.6571,-1.6648,-1.6653,-1.6657,-1.6693,-1.6703,-1.6711,0,0,0,0,0,0,-1.6383,-1.64,-1.6391,-1.6447,-1.6465,-1.6481,-1.651,-1.6499,-1.6523,-1.6518,-1.6512,-1.6516,-1.6564,-1.6572,-1.6544,-1.6629,-1.6598,-1.6605,-1.6622,-1.6631,-1.6639,-1.6635,-1.6512,0,0,0,0,0,-1.6397,-1.6429,-1.6442,-1.649,-1.65,-1.6503,-1.6521,-1.6516,-1.6534,-1.6541,-1.655,-1.6568,-1.6595,-1.6614,-1.664,-1.6697,-1.67,-1.6723,-1.6731,-1.6737,-1.6742,-1.6772,-1.6781,-1.6675,-1.6675,-1.6675,0,0,-1.6426,-1.644,-1.646,-1.6497,-1.6511,-1.6542,-1.651,-1.6545,-1.6568,-1.6546,-1.6591,-1.6598,-1.6617,-1.6668,-1.6692,-1.6676,-1.6772,-1.6743,-1.6748,-1.675,-1.6777,-1.6787,-1.6796,-1.6678,-1.6678,-1.6677,0,0,-1.6495,-1.651,-1.6551,-1.6565,-1.6586,-1.6588,-1.6598,-1.6615,-1.6619,-1.6664,-1.6647,-1.6674,-1.6723,-1.6737,-1.675,-1.6824,-1.6809,-1.6832,-1.6871,-1.69,-1.6908,-1.6916,-1.694,-1.695,-1.6838,-1.6838,-1.6838,0,-1.6529,-1.6577,-1.6573,-1.6609,-1.6625,-1.6608,-1.6649,-1.6662,-1.6691,-1.6702,-1.6685,-1.6744,-1.6756,-1.681,-1.6828,-1.684,-1.6849,-1.683,-1.6908,-1.6915,-1.6922,-1.6945,-1.6955,-1.6841,-1.6841,-1.684,-1.684,0,-1.6616,-1.665,-1.668,-1.6708,-1.6728,-1.6766,-1.6767,-1.6788,-1.6781,-1.6785,-1.6829,-1.6843,-1.6871,-1.6883,-1.6878,-1.6936,-1.6926,-1.6909,-1.6877,-1.6934,-1.6956,-1.6965,-1.6845,-1.6844,-1.6843,-1.6842,0,0,-1.6707,-1.6733,-1.6744,-1.6756,-1.6777,-1.6802,-1.684,-1.6868,-1.6884,-1.6904,-1.6934,-1.6976,-1.6959,-1.6974,-1.697,-1.6995,-1.7051,-1.6974,-1.6974,-1.6987,-1.7114,-1.7126,-1.7137,-1.7042,-1.7044,-1.7045,-1.7112,0,-1.6776,-1.6842,-1.6839,-1.69,-1.6929,-1.6913,-1.6945,-1.6961,-1.6965,-1.6991,-1.6995,-1.7024,-1.7001,-1.7009,-1.7034,-1.7039,-1.7076,-1.7034,-1.7068,-1.7069,-1.7062,-1.7148,-1.7161,-1.7224,-1.7121,-1.7122,-1.7123,0,-1.6866,-1.6889,-1.6953,-1.6969,-1.6981,-1.701,-1.7035,-1.706,-1.7077,-1.7078,-1.7095,-1.7086,-1.7122,-1.7091,-1.714,-1.7112,-1.7125,-1.713,-1.7132,-1.7134,-1.7099,-1.7151,-1.7244,-1.7253,-1.7137,-1.7136,-1.7135,0,-1.6924,-1.6971,-1.7015,-1.7026,-1.7046,-1.7067,-1.7076,-1.7092,-1.7108,-1.713,-1.714,-1.7166,-1.7179,-1.7198,-1.7196,-1.7174,-1.7245,-1.7214,-1.7245,-1.7246,-1.726,-1.7259,-1.7355,-1.7272,-1.7272,-1.7271,-1.7271,0,-1.7,-1.704,-1.7041,-1.7068,-1.7111,-1.7107,-1.715,-1.7156,-1.717,-1.7197,-1.7185,-1.721,-1.7206,-1.7231,-1.723,-1.7269,-1.7276,-1.7277,-1.7275,-1.7277,-1.7277,-1.7285,-1.728,-1.7274,-1.7273,-1.7273,-1.7272,0,-1.7072,-1.7075,-1.7121,-1.7137,-1.7142,-1.7173,-1.7185,-1.721,-1.7213,-1.7247,-1.7255,-1.726,-1.7288,-1.7288,-1.7321,-1.732,-1.7368,-1.7363,-1.7362,-1.7361,-1.7391,-1.7388,-1.7495,-1.7508,-1.7418,-1.7419,-1.7419,0,-1.712,-1.715,-1.7169,-1.7186,-1.7197,-1.7225,-1.7242,-1.724,-1.7257,-1.7279,-1.7301,-1.7329,-1.735,-1.7397,-1.7402,-1.7427,-1.7421,-1.7457,-1.7424,-1.7425,-1.7419,-1.7417,-1.7419,-1.7463,-1.7464,-1.7465,-1.7465,0,-1.7204,-1.7204,-1.723,-1.7256,-1.7276,-1.7296,-1.7315,-1.733,-1.7329,-1.7349,-1.7379,-1.7396,-1.7429,-1.7456,-1.748,-1.7488,-1.7476,-1.7476,-1.7484,-1.7485,-1.7483,-1.7483,-1.7378,-1.7473,-1.7472,-1.7471,-1.7471,-1.7471,-1.7265,-1.729,-1.7307,-1.7335,-1.7349,-1.7366,-1.739,-1.7396,-1.7421,-1.7448,-1.7445,-1.7478,-1.7493,-1.7523,-1.7534,-1.7558,-1.7545,-1.7558,-1.7561,-1.7563,-1.7566,-1.748,-1.7563,-1.7563,-1.7562,-1.7562,-1.7562,0,-1.7347,-1.7357,-1.7383,-1.741,-1.7431,-1.742,-1.7439,-1.7458,-1.7487,-1.7503,-1.7525,-1.7558,-1.7584,-1.7592,-1.7616,-1.7634,-1.7629,-1.7641,-1.7638,-1.764,-1.7577,-1.7567,-1.7644,-1.7644,-1.7644,-1.7644,-1.7644,-1.7644,-1.7392,-1.7434,-1.7435,-1.7483,-1.7493,-1.7525,-1.7537,-1.7552,-1.7565,-1.7603,-1.7624,-1.763,-1.7642,-1.7667,-1.769,-1.7691,-1.77,-1.7714,-1.7713,-1.7653,-1.7645,-1.7637,-1.7627,-1.7716,-1.7716,-1.7774,-1.7774,-1.7775]},{"header":{"parameterUnit":"m.s-1","parameterCategory":1,"la1":30.2991,"la2":30.254,"lo1":-89.0895,"lo2":-89.0444,"dy":0.0017,"dx":0.0017,"nx":28,"ny":28,"refTime":"2023-10-12T09:00:00:Z","depth":0,"parameterNumber":3,"parameterNumberName":"V-component_of_WINDS"},"data":[0,0,0,0,0,0,0,0,0,0,0,0,0,0,0,0,0,0,0,0,0,0,0,0,0,0,0,0,0,0,0,0,0,0,0,0,0,0,0,0,0,0,0,0,0,0,0,0,0,0,0,0,0,0,0,0,0,0,-2.0515,-2.0515,0,-2.0524,-2.0524,-2.0524,-2.0501,-2.05,-2.05,-2.0499,-2.0508,-2.0508,-2.0509,0,0,0,0,0,0,0,0,0,0,0,0,0,-2.0478,-2.0479,-2.0515,-2.0515,-2.0516,-2.0524,-2.0524,-2.0524,-2.0501,-2.05,-2.05,-2.0499,-2.0507,-2.0508,-2.0509,0,0,0,0,0,0,0,0,0,0,0,0,0,-2.0491,-2.0479,-2.0515,-2.0505,-2.0504,-2.0524,-2.0524,-2.0524,-2.0502,-2.05,-2.0499,-2.0498,-2.0507,-2.0508,-2.051,-2.0539,0,0,-2.0514,-2.0514,0,0,0,0,0,0,0,0,-2.049,-2.0492,-2.0507,-2.0506,-2.0505,-2.051,-2.0514,-2.0529,-2.0502,-2.0503,-2.0499,-2.0498,-2.0509,-2.051,-2.0514,-2.054,-2.054,-2.0514,-2.0515,-2.0515,-2.0516,0,0,0,0,0,0,0,-2.0489,-2.0492,-2.0519,-2.0507,-2.0506,-2.05,-2.05,-2.0517,-2.0512,-2.0502,-2.0501,-2.0502,-2.0509,-2.0513,-2.0514,-2.054,-2.0514,-2.0515,-2.0516,-2.0516,-2.0588,-2.0589,0,0,0,0,0,0,-2.049,-2.0491,-2.0518,-2.0519,-2.0495,-2.0501,-2.0502,-2.051,-2.0512,-2.0511,-2.0503,-2.0501,-2.0511,-2.0513,-2.0515,-2.0548,-2.0515,-2.0516,-2.0517,-2.0587,-2.0588,-2.059,0,0,0,0,0,0,-2.0489,-2.0493,-2.0518,-2.0505,-2.0507,-2.0503,-2.0512,-2.051,-2.0515,-2.0512,-2.0511,-2.0509,-2.0511,-2.0513,-2.0533,-2.0548,-2.0517,-2.0518,-2.0586,-2.0587,-2.0589,-2.0616,0,0,0,0,0,0,-2.0488,-2.0493,-2.0504,-2.0505,-2.0508,-2.0537,-2.0513,-2.0511,-2.0517,-2.0515,-2.0517,-2.0516,-2.051,-2.0531,-2.0534,-2.0549,-2.0519,-2.0584,-2.0586,-2.0588,-2.0614,-2.0619,-2.0623,0,0,0,0,0,-2.0487,-2.0512,-2.0505,-2.0508,-2.0523,-2.0538,-2.0539,-2.0532,-2.0519,-2.053,-2.0528,-2.0516,-2.0546,-2.0533,-2.0537,-2.0553,-2.0583,-2.0586,-2.0588,-2.0612,-2.0618,-2.0623,0,0,0,0,0,0,-2.0513,-2.0512,-2.0504,-2.053,-2.0534,-2.0534,-2.0548,-2.0538,-2.0546,-2.0543,-2.0533,-2.0534,-2.0556,-2.0556,-2.0542,-2.058,-2.0562,-2.0566,-2.0579,-2.0585,-2.0589,-2.0588,-2.052,0,0,0,0,0,-2.0522,-2.0535,-2.0533,-2.0556,-2.0558,-2.0553,-2.0559,-2.0552,-2.0556,-2.0558,-2.0557,-2.0561,-2.0571,-2.0578,-2.0587,-2.0614,-2.0613,-2.0627,-2.0631,-2.0634,-2.0637,-2.065,-2.0655,-2.0598,-2.0598,-2.0598,0,0,-2.0541,-2.0541,-2.055,-2.0561,-2.0563,-2.0576,-2.0554,-2.0569,-2.0578,-2.056,-2.0579,-2.0578,-2.0582,-2.0605,-2.0615,-2.0606,-2.0653,-2.0638,-2.0641,-2.0641,-2.0653,-2.0659,-2.0663,-2.0599,-2.0599,-2.0599,0,0,-2.058,-2.0583,-2.0601,-2.0604,-2.0607,-2.0603,-2.0608,-2.0608,-2.0607,-2.0626,-2.0612,-2.0623,-2.0641,-2.0643,-2.0647,-2.0686,-2.0675,-2.0689,-2.0712,-2.0724,-2.0729,-2.0733,-2.0745,-2.075,-2.0692,-2.0692,-2.0692,0,-2.0603,-2.0621,-2.0612,-2.0627,-2.0632,-2.0616,-2.0634,-2.0637,-2.0643,-2.0647,-2.0636,-2.0657,-2.0659,-2.0682,-2.0691,-2.0695,-2.0699,-2.0689,-2.0729,-2.0733,-2.0736,-2.0748,-2.0753,-2.0693,-2.0693,-2.0693,-2.0693,0,-2.0648,-2.0661,-2.0675,-2.0681,-2.0688,-2.0704,-2.0697,-2.0705,-2.0697,-2.0694,-2.0712,-2.0713,-2.0721,-2.0726,-2.072,-2.0748,-2.0742,-2.073,-2.0712,-2.0743,-2.0754,-2.0759,-2.0696,-2.0695,-2.0695,-2.0694,0,0,-2.0705,-2.0705,-2.071,-2.0712,-2.0714,-2.0723,-2.0739,-2.0747,-2.0753,-2.0757,-2.0769,-2.0784,-2.0773,-2.0777,-2.077,-2.0781,-2.081,-2.0768,-2.0768,-2.0775,-2.084,-2.0848,-2.0854,-2.0803,-2.0804,-2.0805,-2.0839,0,-2.0744,-2.077,-2.0761,-2.0787,-2.0798,-2.0782,-2.0795,-2.0798,-2.0795,-2.0803,-2.08,-2.081,-2.0795,-2.0797,-2.0808,-2.0805,-2.0823,-2.0802,-2.0814,-2.0814,-2.0813,-2.086,-2.0869,-2.0902,-2.0844,-2.0845,-2.0845,0,-2.0792,-2.0798,-2.0825,-2.0823,-2.0827,-2.0839,-2.0845,-2.0854,-2.0855,-2.0852,-2.0856,-2.0847,-2.0861,-2.0843,-2.0861,-2.0847,-2.0851,-2.085,-2.0851,-2.0852,-2.0831,-2.0861,-2.0912,-2.0917,-2.0852,-2.0852,-2.0851,0,-2.083,-2.0844,-2.0862,-2.0864,-2.0863,-2.0871,-2.0871,-2.0872,-2.0877,-2.0882,-2.0884,-2.0891,-2.0895,-2.09,-2.0892,-2.088,-2.0911,-2.0893,-2.0909,-2.0909,-2.0916,-2.0916,-2.0968,-2.092,-2.092,-2.092,-2.0919,0,-2.0873,-2.089,-2.0878,-2.0889,-2.0907,-2.0897,-2.0915,-2.0913,-2.0914,-2.0923,-2.091,-2.092,-2.0909,-2.0917,-2.0911,-2.0927,-2.0929,-2.0926,-2.0924,-2.0927,-2.0927,-2.0929,-2.0927,-2.0921,-2.0921,-2.092,-2.092,0,-2.0918,-2.0912,-2.0929,-2.0926,-2.0926,-2.0939,-2.0937,-2.0946,-2.0942,-2.0954,-2.0956,-2.095,-2.0958,-2.0951,-2.096,-2.0956,-2.0976,-2.0971,-2.0976,-2.0974,-2.099,-2.0988,-2.1045,-2.1051,-2.1,-2.1,-2.1001,0,-2.0946,-2.0959,-2.0957,-2.0962,-2.0962,-2.0971,-2.0976,-2.0966,-2.0971,-2.0973,-2.0982,-2.0989,-2.0995,-2.1009,-2.1005,-2.1011,-2.1006,-2.1025,-2.1007,-2.1009,-2.1005,-2.1004,-2.1005,-2.1029,-2.103,-2.103,-2.1031,0,-2.0996,-2.0991,-2.0998,-2.1003,-2.1009,-2.1013,-2.1015,-2.102,-2.101,-2.1016,-2.1025,-2.1029,-2.1037,-2.1044,-2.1049,-2.1048,-2.1038,-2.1036,-2.104,-2.1043,-2.1045,-2.1043,-2.0985,-2.1035,-2.1035,-2.1034,-2.1034,-2.1034,-2.1033,-2.1042,-2.1042,-2.105,-2.105,-2.1053,-2.1061,-2.1057,-2.1064,-2.107,-2.1063,-2.1073,-2.1073,-2.1078,-2.1079,-2.1086,-2.1078,-2.1084,-2.1085,-2.1087,-2.1089,-2.1044,-2.1087,-2.1087,-2.1087,-2.1087,-2.1087,0,-2.1081,-2.1079,-2.1087,-2.109,-2.1096,-2.1085,-2.1087,-2.1092,-2.1101,-2.1102,-2.1107,-2.1116,-2.1123,-2.1118,-2.1124,-2.113,-2.1126,-2.1132,-2.1131,-2.1131,-2.1096,-2.1092,-2.1136,-2.1136,-2.1136,-2.1136,-2.1136,-2.1136,-2.1107,-2.1122,-2.1117,-2.1132,-2.1131,-2.114,-2.1142,-2.1144,-2.1144,-2.1155,-2.116,-2.1157,-2.1155,-2.116,-2.1166,-2.1164,-2.1166,-2.1175,-2.1172,-2.1139,-2.1134,-2.1129,-2.1125,-2.1176,-2.1176,-2.1206,-2.1206,-2.1206]}]]